Regional Weather Roundup
Issued by NWS

Home | Current Version | Previous Version | Graphics & Text | Print | Product List | Glossary On
Versions: 1 2 3 4 5 6 7 8 9 10 11 12 13 14 15 16 17 18 19 20 21 22 23 24 25 26 27 28 29 30 31 32 33 34 35 36 37 38 39 40 41 42 43 44 45 46 47 48 49 50
571
ASUS44 KJAN 240810
RWRMS

MISSISSIPPI HOURLY WEATHER ROUNDUP
NATIONAL WEATHER SERVICE JACKSON MS
300 AM CDT FRI OCT 24 2014

NOTE: "FAIR: INDICATES FEW OR NO CLOUDS BELOW 12,000 FEET WITH NO
SIGNIFICANT WEATHER AND/OR OBSTRUCTIONS TO VISIBILITY.

MSZ001>002-007>008-010>013-018>021-025>028-034>036-240900-
NORTHWEST MISSISSIPPI

CITY           SKY/WX    TMP DP  RH WIND       PRES   REMARKS
CLARKSDALE     FAIR      46  46 100 CALM      30.14S
CLEVELAND      FAIR      49  48  97 NW3       30.13F
GREENWOOD      MOCLDY    48  47  96 CALM      30.13S
GREENVILLE     MOCLDY    50  47  89 CALM      30.13F
GRENADA          N/A    N/A N/A N/A MISG        N/A
OLIVE BRANCH   CLEAR     48  48 100 CALM      30.13F
OXFORD         FAIR      48  46  93 CALM      30.14R
TUNICA         MOSUNNY   46  45  93 CALM      30.15S
$$

MSZ003>006-009-014>017-022>024-029>033-037>039-240900-
NORTHEAST MISSISSIPPI

CITY           SKY/WX    TMP DP  RH WIND       PRES   REMARKS
COLUMBUS AFB   CLOUDY    53  51  92 W6        30.11R
CORINTH        FAIR      50  46  87 NW3       30.12S
GOLDN TRIANGLE MOCLDY    52  46  82 CALM      30.10R
STARKVILLE     FAIR      50  50 100 CALM      30.11R
TUPELO         CLOUDY    53  47  79 CALM      30.11R
$$

MSZ040-058-240900-
CENTRAL MISSISSIPPI

CITY           SKY/WX    TMP DP  RH WIND       PRES   REMARKS
JACKSON INTL   CLEAR     45  44  97 CALM      30.10F FOG
JACKSON HAWKNS CLEAR     48  45  89 CALM      30.11S
MERIDIAN KEY   MOCLDY    47  45  93 NW5       30.09F
MERIDIAN NAS   MOCLDY    50  47  89 W3        30.09F
RAYMOND        HAZE      43  37  81 CALM      30.11S VSB 3/4
VICKSBURG      CLEAR     46  45  96 NW5       30.13R
$$

MSZ059>079-240900-
SOUTH MISSISSIPPI

CITY           SKY/WX    TMP DP  RH WIND       PRES   REMARKS
BROOKHAVEN     FAIR      46  46 100 CALM      30.12S
COLUMBIA         N/A    N/A N/A N/A MISG        N/A
HATTIESBURG    CLEAR     49  48  97 CALM      30.10S
MCCOMB         PTCLDY    54  48  80 NE5       30.09F
NATCHEZ        CLEAR     46  43  87 CALM      30.12S
PINE BELT      CLEAR     48  45  87 N5        30.10R
$$

MSZ080>082-240900-
COASTAL MISSISSIPPI

CITY           SKY/WX    TMP DP  RH WIND       PRES   REMARKS
BILOXI         CLEAR     57  48  72 NE8       30.06S
PASCAGOULA     PTCLDY    48  46  93 CALM      30.06S
GULFPORT       CLEAR     55  46  71 N6        30.06R
$$



USA.gov is the U.S. government's official web portal to all federal, state and local government web resources and services.